TimeCST,TemperatureF,Dew PointF,Humidity,Sea Level PressureIn,VisibilityMPH,Wind Direction,Wind SpeedMPH,Gust SpeedMPH,PrecipitationIn,Events,Conditions,WindDirDegrees,DateUTC
12:15 AM,37.4,26.6,65,30.35,10.0,East,4.6,-,N/A,,Clear,90,2014-01-09 06:15:00
12:35 AM,37.4,26.6,65,30.35,10.0,ENE,3.5,-,N/A,,Clear,70,2014-01-09 06:35:00
12:55 AM,37.4,26.6,65,30.35,10.0,Calm,Calm,-,N/A,,Mostly Cloudy,0,2014-01-09 06:55:00
1:15 AM,37.4,26.6,65,30.34,10.0,Calm,Calm,-,N/A,,Overcast,0,2014-01-09 07:15:00
1:35 AM,39.2,26.6,61,30.34,10.0,Calm,Calm,-,N/A,,Mostly Cloudy,0,2014-01-09 07:35:00
1:55 AM,37.4,26.6,65,30.33,10.0,Calm,Calm,-,N/A,,Mostly Cloudy,0,2014-01-09 07:55:00
2:15 AM,37.4,26.6,65,30.33,10.0,Calm,Calm,-,N/A,,Scattered Clouds,0,2014-01-09 08:15:00
2:35 AM,37.4,26.6,65,30.33,10.0,Calm,Calm,-,N/A,,Clear,0,2014-01-09 08:35:00
2:55 AM,35.6,26.6,70,30.34,10.0,Calm,Calm,-,N/A,,Clear,0,2014-01-09 08:55:00
3:15 AM,35.6,26.6,70,30.34,10.0,Calm,Calm,-,N/A,,Clear,0,2014-01-09 09:15:00
3:35 AM,35.6,26.6,70,30.33,10.0,Calm,Calm,-,N/A,,Clear,0,2014-01-09 09:35:00
3:55 AM,35.6,26.6,70,30.34,10.0,Calm,Calm,-,N/A,,Clear,0,2014-01-09 09:55:00
4:15 AM,35.6,26.6,70,30.33,10.0,Calm,Calm,-,N/A,,Clear,0,2014-01-09 10:15:00
4:35 AM,35.6,24.8,65,30.33,10.0,Calm,Calm,-,N/A,,Clear,0,2014-01-09 10:35:00
4:55 AM,35.6,24.8,65,30.32,10.0,Calm,Calm,-,N/A,,Clear,0,2014-01-09 10:55:00
5:15 AM,35.6,24.8,65,30.33,10.0,East,3.5,-,N/A,,Clear,80,2014-01-09 11:15:00
5:35 AM,35.6,24.8,65,30.33,10.0,ENE,3.5,-,N/A,,Clear,70,2014-01-09 11:35:00
5:55 AM,35.6,24.8,65,30.33,10.0,ENE,4.6,-,N/A,,Clear,70,2014-01-09 11:55:00
6:15 AM,35.6,23.0,60,30.33,10.0,East,3.5,-,N/A,,Clear,80,2014-01-09 12:15:00
6:35 AM,35.6,23.0,60,30.33,10.0,Calm,Calm,-,N/A,,Clear,0,2014-01-09 12:35:00
6:55 AM,35.6,23.0,60,30.33,10.0,Calm,Calm,-,N/A,,Clear,0,2014-01-09 12:55:00
7:15 AM,37.4,23.0,56,30.34,10.0,East,3.5,-,N/A,,Clear,80,2014-01-09 13:15:00
7:35 AM,37.4,23.0,56,30.35,10.0,ENE,3.5,-,N/A,,Clear,60,2014-01-09 13:35:00
7:55 AM,39.2,23.0,52,30.35,10.0,Calm,Calm,-,N/A,,Clear,0,2014-01-09 13:55:00
8:15 AM,41.0,23.0,49,30.35,10.0,East,5.8,-,N/A,,Clear,100,2014-01-09 14:15:00
8:35 AM,42.8,24.8,49,30.35,10.0,East,5.8,-,N/A,,Clear,90,2014-01-09 14:35:00
8:55 AM,46.4,26.6,46,30.35,10.0,East,5.8,-,N/A,,Clear,100,2014-01-09 14:55:00
9:15 AM,48.2,30.2,50,30.36,10.0,Calm,Calm,-,N/A,,Scattered Clouds,0,2014-01-09 15:15:00
9:35 AM,51.8,32.0,47,30.36,10.0,ESE,4.6,-,N/A,,Mostly Cloudy,110,2014-01-09 15:35:00
9:55 AM,51.8,33.8,50,30.36,10.0,East,3.5,-,N/A,,Overcast,90,2014-01-09 15:55:00
10:15 AM,53.6,35.6,51,30.35,10.0,East,3.5,-,N/A,,Mostly Cloudy,90,2014-01-09 16:15:00
10:35 AM,55.4,37.4,51,30.34,10.0,East,3.5,-,N/A,,Overcast,80,2014-01-09 16:35:00
10:55 AM,57.2,39.2,51,30.34,10.0,ESE,5.8,-,N/A,,Overcast,120,2014-01-09 16:55:00
11:15 AM,59.0,39.2,48,30.32,10.0,East,6.9,-,N/A,,Overcast,100,2014-01-09 17:15:00
11:35 AM,62.6,41.0,45,30.31,10.0,ESE,5.8,-,N/A,,Scattered Clouds,120,2014-01-09 17:35:00
11:55 AM,62.6,44.6,52,30.30,10.0,SE,9.2,-,N/A,,Scattered Clouds,140,2014-01-09 17:55:00
12:15 PM,64.4,44.6,49,30.28,10.0,SE,8.1,-,N/A,,Overcast,140,2014-01-09 18:15:00
12:35 PM,64.4,44.6,49,30.27,10.0,SE,9.2,-,N/A,,Mostly Cloudy,140,2014-01-09 18:35:00
12:55 PM,64.4,42.8,45,30.26,10.0,SSE,11.5,-,N/A,,Clear,160,2014-01-09 18:55:00
1:15 PM,64.4,42.8,45,30.24,10.0,SSE,9.2,-,N/A,,Clear,160,2014-01-09 19:15:00
1:35 PM,64.4,42.8,45,30.24,10.0,South,9.2,-,N/A,,Scattered Clouds,170,2014-01-09 19:35:00
1:55 PM,64.4,44.6,49,30.24,10.0,SSE,9.2,-,N/A,,Scattered Clouds,160,2014-01-09 19:55:00
2:35 PM,64.4,44.6,49,30.24,10.0,SSE,6.9,-,N/A,,Clear,160,2014-01-09 20:35:00
2:55 PM,64.4,44.6,49,30.24,10.0,SE,9.2,-,N/A,,Clear,140,2014-01-09 20:55:00
3:15 PM,64.4,44.6,49,30.24,10.0,South,6.9,-,N/A,,Clear,170,2014-01-09 21:15:00
3:35 PM,64.4,44.6,49,30.24,10.0,SE,8.1,-,N/A,,Clear,140,2014-01-09 21:35:00
3:55 PM,62.6,46.4,55,30.24,10.0,SSE,8.1,-,N/A,,Clear,160,2014-01-09 21:55:00
4:15 PM,62.6,46.4,55,30.24,10.0,SE,5.8,-,N/A,,Clear,140,2014-01-09 22:15:00
5:15 PM,57.2,46.4,67,30.25,10.0,SSE,6.9,-,N/A,,Clear,150,2014-01-09 23:15:00
5:35 PM,55.4,46.4,72,30.24,10.0,SE,5.8,-,N/A,,Clear,140,2014-01-09 23:35:00
5:55 PM,51.8,44.6,76,30.25,10.0,SSE,4.6,-,N/A,,Clear,150,2014-01-09 23:55:00
6:15 PM,51.8,44.6,76,30.25,10.0,Calm,Calm,-,N/A,,Clear,0,2014-01-10 00:15:00
6:35 PM,51.8,44.6,76,30.25,10.0,SE,3.5,-,N/A,,Clear,130,2014-01-10 00:35:00
6:55 PM,50.0,44.6,82,30.25,10.0,SE,4.6,-,N/A,,Clear,140,2014-01-10 00:55:00
7:15 PM,50.0,42.8,76,30.25,10.0,SE,3.5,-,N/A,,Clear,140,2014-01-10 01:15:00
7:35 PM,48.2,42.8,82,30.26,10.0,SE,4.6,-,N/A,,Clear,130,2014-01-10 01:35:00
7:55 PM,50.0,44.6,82,30.25,10.0,ESE,5.8,-,N/A,,Clear,120,2014-01-10 01:55:00
8:15 PM,50.0,44.6,82,30.25,10.0,ESE,4.6,-,N/A,,Clear,120,2014-01-10 02:15:00
8:35 PM,50.0,44.6,82,30.25,10.0,ESE,3.5,-,N/A,,Clear,120,2014-01-10 02:35:00
8:55 PM,50.0,44.6,82,30.25,10.0,ESE,4.6,-,N/A,,Clear,120,2014-01-10 02:55:00
9:15 PM,50.0,44.6,82,30.24,10.0,Calm,Calm,-,N/A,,Clear,0,2014-01-10 03:15:00
9:35 PM,48.2,42.8,82,30.25,10.0,Calm,Calm,-,N/A,,Clear,0,2014-01-10 03:35:00
9:55 PM,48.2,42.8,82,30.25,10.0,Calm,Calm,-,N/A,,Clear,0,2014-01-10 03:55:00
10:15 PM,44.6,41.0,87,30.25,10.0,Calm,Calm,-,N/A,,Clear,0,2014-01-10 04:15:00
10:35 PM,44.6,42.8,93,30.24,10.0,Calm,Calm,-,N/A,,Clear,0,2014-01-10 04:35:00
10:55 PM,44.6,42.8,93,30.24,10.0,Calm,Calm,-,N/A,,Clear,0,2014-01-10 04:55:00
11:15 PM,42.8,41.0,93,30.24,10.0,Calm,Calm,-,N/A,,Clear,0,2014-01-10 05:15:00
11:35 PM,42.8,39.2,87,30.23,10.0,Calm,Calm,-,N/A,,Clear,0,2014-01-10 05:35:00
11:55 PM,42.8,39.2,87,30.23,10.0,Calm,Calm,-,N/A,,Clear,0,2014-01-10 05:55:00